Regional Weather Roundup
Issued by NWS

Home | Current Version | Previous Version | Graphics & Text | Print | Product List | Glossary On
Versions: 1 2 3 4 5 6 7 8 9 10 11 12 13 14 15 16 17 18 19 20 21 22 23 24 25 26 27 28 29 30 31 32 33 34 35 36 37 38 39 40 41 42 43 44 45 46 47 48 49 50
000
ASUS45 KSLC 012010
RWRUT
UTAH REGIONAL WEATHER ROUNDUP
NATIONAL WEATHER SERVICE SALT LAKE CITY UT
200 PM MDT SAT AUG 01 2015

UTZ001>011-023>025-012100-

NORTHERN UTAH

CITY           SKY/WX    TMP DP  RH WIND       PRES   REMARKS
BRIGHAM CITY   SUNNY     90  31  12 CALM      30.10F
HILL AFB       MOSUNNY   90  37  15 N5        30.13F
LOGAN          SUNNY     89  37  16 VRB6      30.11F
OGDEN          SUNNY     92  33  12 VRB7      30.10F
PROVO AIRPORT  MOSUNNY   84  37  18 VRB6      30.13F
SALT LAKE CITY PTSUNNY   92  34  13 N8        30.09F
VERNAL         SUNNY     88  29  12 VRB6      30.13F
WENDOVER       MOSUNNY   91  30  11 E9        30.11F
HEBER CITY     MOSUNNY   90  30  12 SE5       30.18F
WEST JORDAN    SUNNY     91  37  15 N10       30.13F

$$

UTZ012>022-026-027-012100-

SOUTHERN/CENTRAL UTAH

CITY           SKY/WX    TMP DP  RH WIND       PRES   REMARKS
BLANDING       CLOUDY    70  60  70 NE6       30.34F
BRYCE CANYON   CLOUDY    79  45  29 SE10      30.36F
CEDAR CITY     CLOUDY    84  41  21 S7        30.19F
DELTA          PTSUNNY   89  28  11 CALM      30.12F
HANKSVILLE     PTSUNNY   90  54  29 SE14G21   30.12F
MILFORD        PTSUNNY   91  36  14 CALM      30.12F
MOAB/CYNLANDS  MOSUNNY   91  53  27 SW14G21   30.09F
PRICE          MOSUNNY   87  36  16 VRB7      30.20F
ST GEORGE      PTCLDY    93  54  26 SW17      30.03F HX  91

$$

REGIONAL REPORTS     COLORADO/ARIZONA

CITY           SKY/WX    TMP DP  RH WIND       PRES   REMARKS
CRAIG, CO      SUNNY     89  32  13 VRB3      30.20F
GRAND JUNCTION MOSUNNY   87  49  26 SW8       30.11F
RIFLE          MOSUNNY   91  41  17 VRB7      30.14F
MONTROSE       PTSUNNY   87  47  24 VRB6      30.21F
CORTEZ         MOSUNNY   77  58  51 VRB6      30.25F
PAGE, AZ       PTSUNNY   90  54  29 N7        30.12F
GRAND CANYON   LGT RAIN  71  53  52 CALM      30.33F
KINGMAN        LGT RAIN  72  62  71 S13       30.14S
FLAGSTAFF      CLOUDY    72  54  53 NE9       30.34F

$$

REGIONAL REPORTS    NEVADA/IDAHO/WYOMING

CITY           SKY/WX    TMP DP  RH WIND       PRES   REMARKS
LAS VEGAS, NV  CLOUDY    84  62  47 NW12      30.03R
ELY            PTSUNNY   87  29  12 CALM      30.22F
ELKO           SUNNY     93  22   7 N7        30.14F
POCATELLO, ID  SUNNY     92  36  14 VRB5      30.12F
BURLEY         SUNNY     92  36  14 CALM      30.08F
EVANSTON, WY   SUNNY     82  19   9 VRB6      30.31F
ROCK SPRINGS   SUNNY     84  28  13 W10       30.26F
KEMMERER       SUNNY    N/A N/A N/A NW3       30.31F

$$



USA.gov is the U.S. government's official web portal to all federal, state and local government web resources and services.